LEMUR-2-JACKSON (48885 NORAD) Tracking and Keplerian Element Data

This shows tracking and keplerian element data for the satellite.

Feedback or suggestion? Click here.




ElementValue
Catalog48885
NameLEMUR-2-JACKSON
Epoch Orbit1387
Epoch Day268.612806
Epoch Year2021
RAAN36.0429
Inclination97.5249
Eccentricity0.0007153
Argument of Perigee301.1195
Mean Anonmoly58.9334
Mean Motion15.12274663
Decay Rate4.44E-05
L11 48885U 21059G 21268.61280600 .00004440 00000-0 26024-3 0 9991
L22 48885 97.5249 36.0429 0007153 301.1195 58.9334 15.12274663 13879

Live tracking and technical data element details for LEMUR-2-JACKSON (NORAD 48885). LEMUR-2-JACKSON can be tracked NOW for your location showing map with azimuth and elevation plus other details from your city location.

Track the satellite on the map from your city or location and see movement details for azimuth, elevation, latitude, longitude, range, height, and movement on the map or in text.







IsCatalogInMostPopularTable: catalog: 48885, numindb: 15
Update: records affected: 1



GetName: 48885 LEMUR-2-JACKSON

Hit Count: updated at: Sun, 26 Sep 2021 14:53:02 GMT